Regional Weather Roundup
Issued by NWS Sterling, VA

Home | Current Version | Previous Version | Graphics & Text | Print | Product List | Glossary On
Versions: 1 2 3 4 5 6 7 8 9 10 11 12 13 14 15 16 17 18 19 20 21 22 23 24 25 26 27
000
ASUS41 KLWX 180110
RWRLWX

REGIONAL WEATHER ROUNDUP
NATIONAL WEATHER SERVICE BALTIMORE MD/WASHINGTON DC
900 PM EDT TUE OCT 17 2017

Note: "FAIR" indicates few or no clouds below 12,000 feet
with no significant weather and/or obstructions to visibility.
 TC=TEMPERATURE CELSIUS

 * =Non NWS site. Station does not report precipitation (e.g. rain,
    snow, etc.), thunder, or fog.

DCZ001-MDZ009-015-VAZ040>042-051-053>054-180200-
WASHINGTON METRO

CITY           SKY/WX    TMP DP  RH WIND       PRES   REMARKS
WASHINGTON NAT CLEAR     54  40  59 SE7       30.32R
DULLES         CLEAR     47  38  71 S3        30.31R
ANDREWS AFB    CLEAR     48  41  76 S3        30.31R
FT BELVOIR     CLEAR     45  42  90 CALM      30.32R
QUANTICO       CLEAR     50  46  86 W6        30.33S
COLLEGE PARK*  CLEAR     46  41  84 CALM      30.31S
LEESBURG*      CLEAR     46  43  87 SW6       30.32R
MANASSAS*      CLEAR     45  40  82 CALM      30.32R
GAITHERSBURG*  CLEAR     45  39  79 CALM      30.31R

$$

MDZ006>007-011-014-180200-
BALTIMORE METRO

CITY           SKY/WX    TMP DP  RH WIND       PRES   REMARKS
BWI AIRPORT    CLEAR     48  41  76 CALM      30.31R
MD SCIENCE CTR   N/A     55  40  56 MISG      30.32R
MARTIN STATE   PTCLDY    48  45  87 CALM      30.33R
ANNAPOLIS      CLEAR     52  46  80 CALM      30.32R
FORT MEADE*    CLEAR     43  41  93 CALM      30.34R

$$

MDZ012-015-019>023-180200-
MARYLAND EASTERN SHORE

CITY           SKY/WX    TMP DP  RH WIND       PRES   REMARKS
OCEAN CITY     CLEAR     42  41  96 CALM      30.33S
SALISBURY      CLEAR     44  43  96 CALM      30.33S
CAMBRIDGE*     CLEAR     45  43  93 CALM      30.33S
EASTON*        CLEAR     48  41  76 CALM      30.36R

$$

MDZ017>025-180200-
SOUTHERN MARYLAND

CITY           SKY/WX    TMP DP  RH WIND       PRES   REMARKS
PATUXENT RIVER PTCLDY    43  41  93 SW3       30.33R
ST INIGOES     CLEAR     44  41  89 CALM      30.33R
LEONARDTOWN*   NOT AVBL

$$

MDZ003>005-180200-
NORTH CENTRAL MARYLAND

CITY           SKY/WX    TMP DP  RH WIND       PRES   REMARKS
FREDERICK*     NOT AVBL
HAGERSTOWN APT CLEAR     53  36  52 S7        30.29R
WESTMINSTER*   CLEAR     48  41  76 CALM      30.30R

$$

MDZ501>502-180200-
WESTERN MARYLAND

CITY           SKY/WX    TMP DP  RH WIND       PRES   REMARKS
OAKLAND*       CLEAR     45  32  61 W5        30.27R
CUMBERLAND*    CLEAR     52  43  71 N3        30.32S

$$

VAZ025>031-180200-
SHENANDOAH VALLEY

CITY           SKY/WX    TMP DP  RH WIND       PRES   REMARKS
WINCHESTER*    CLEAR     46  36  66 CALM      30.29S
FRONT ROYAL*   CLEAR     46  36  66 S3        30.29R
LURAY*         CLEAR     46  39  76 CALM      30.30S
NEW MARKET*    CLEAR     44  38  79 CALM      30.30R
STAUNTON*      CLEAR     45  36  70 CALM      30.33R
WAYNESBORO*    CLEAR     48  37  64 CALM      30.32R

$$

WVZ021-048>050-054>055-180200-
EASTERN WEST VIRGINIA PANHANDLE

CITY           SKY/WX    TMP DP  RH WIND       PRES   REMARKS
MARTINSBURG    CLEAR     46  37  71 S3        30.28R
PETERSBURG*    CLEAR     44  41  88 CALM      30.30R

$$

VAZ036>039-050-180200-
CENTRAL FOOTHILLS

CITY           SKY/WX    TMP DP  RH WIND       PRES   REMARKS
CHARLOTTESVILL CLEAR     49  40  71 CALM      30.32R
CULPEPER*      CLEAR     44  38  79 CALM      30.32S
ORANGE*        CLEAR     43  37  81 CALM      30.32S
GORDONSVILLE*  CLEAR     43  41  92 CALM      30.32S
WARRENTON*     CLEAR     40  34  80 CALM      30.31S

$$

VAZ055>057-180200-
NORTH AND CENTRAL PIEDMONT

CITY           SKY/WX    TMP DP  RH WIND       PRES   REMARKS
FREDERICKSBRG* CLEAR     46  41  82 CALM      30.32S
STAFFORD*      CLEAR     40  40 100 CALM      30.36S

$$

NCZ024-NYZ072-PAZ021-071-VAZ022-071-180200-
OTHER REGIONAL OBSERVATIONS

CITY           SKY/WX    TMP DP  RH WIND       PRES   REMARKS
NEW YORK CITY  CLEAR     54  40  59 VRB3      30.30
PHILADELPHIA   CLEAR     54  38  54 S7        30.31R
PITTSBURGH     CLEAR     54  40  59 S5        30.26S
ROANOKE        CLEAR     52  39  61 CALM      30.34R
RICHMOND       CLEAR     49  41  74 CALM      30.33S
RALEIGH        PTCLDY    48  42  80 NE3       30.33R

$$

ANZ530>537-180200-
MARINE OBSERVATIONS

STATION/POSITION TIME  TEMP    WIND        PRES
                       AIR SEA DIR/SP/G
                 (UTC) (F)     (DEG/KT/KT) (MB)
THOMAS PT LIGHT  0100   59 68  200/ 10/ 11   N/A
BALT KEY BRIDGE  0048   54     200/  8/  9 1026.3R
COVE POINT       0048   56     240/  5/  6 1027.6R
LEWISETTA        0048   53 65  240/  3/  3 1026.9S
SOLOMONS ISLAND  0042   56 70  220/  3/  4 1026.7R
PINEY POINT      0048          180/  3/  5   N/A

$$





USA.gov is the U.S. government's official web portal to all federal, state and local government web resources and services.